Flag for India Weather past 2 weeks in Hissar, Haryana, India

61 °F


Feels Like: 61 °F
Forecast: 58 / 80 °F
Wind: 5 mph from West

Location: New Delhi Palam Airport

Current Time: Nov 27, 2015 at 10:44:20 AM

Latest Report: Nov 27, 2015 at 10:00 AM

Visibility: 2 mi

Pressure: 29.92 "Hg

Humidity: 52%

Dew point: 43 °F

Location of HissarLocation

Historic Weather in Hissar — Graph


Hissar temperature yesterday

Maximum temperature yesterday: 82 °F (at 2:00 PM)
Minimum temperature yesterday: 55 °F (at 6:00 AM)
Average temperature yesterday: 68 °F

Past Weeks' High & Low Weather Summary

High90 °F (Nov 15, 4:00 PM)88% (Nov 21, 12:30 AM)30.12 "Hg (Nov 21, 12:30 AM)
Low54 °F (Nov 18, 6:00 AM)21% (Nov 22, 3:30 PM)29.86 "Hg (Nov 14, 2:30 PM)
Average70 °F53%29.97 "Hg
* Reported Nov 12 9:00 AM — Nov 27 8:30 AM, Hissar, Weather by CustomWeather, © 2015

Note: Actual official high and low records may vary slightly from our data, if they occured in-between our weather recording intervals... More about our weather records


Hissar weather history for previous 24 hours

Time TempWeatherWind HumidityBarometerVisibility
8:30 AM
Fri, Nov 27
57 °FPartly sunny.7 mph59%29.89 "Hg2 mi
7:30 AM54 °FScattered clouds.7 mph67%29.86 "Hg2 mi
7:00 AM54 °FPartly cloudy.5 mph67%29.86 "Hg2 mi
6:30 AM55 °FPartly cloudy.No wind63%29.86 "Hg2 mi
6:00 AM55 °FPartly cloudy.5 mph63%29.86 "Hg2 mi
5:00 AM59 °FPartly cloudy.6 mph55%29.86 "Hg2 mi
4:00 AM61 °FPartly cloudy.6 mph52%29.86 "Hg2 mi
3:30 AM63 °FPartly cloudy.6 mph56%29.86 "Hg1 mi
3:00 AM64 °FPartly cloudy.6 mph60%29.86 "Hg1 mi
2:30 AM64 °FPartly cloudy.6 mph64%29.86 "Hg1 mi
2:00 AM64 °FRain. Overcast.3 mph64%29.86 "Hg1 mi
1:30 AM64 °FRain. Overcast.No wind64%29.86 "Hg1 mi
1:00 AM64 °FRain. Overcast.No wind64%29.86 "Hg1 mi
12:30 AM64 °FRain. Overcast.No wind64%29.86 "Hg1 mi
12:00 AM64 °FRain. Overcast.No wind64%29.86 "Hg1 mi
11:30 PM
Thu, Nov 26
64 °FPassing clouds.No wind60%29.89 "Hg1 mi
11:00 PM64 °FPassing clouds.No wind60%29.89 "Hg1 mi
10:30 PM64 °FPassing clouds.5 mph60%29.89 "Hg1 mi
10:00 PM64 °FPassing clouds.3 mph60%29.89 "Hg1 mi
9:30 PM66 °FPassing clouds.No wind56%29.89 "Hg1 mi
9:00 PM68 °FPassing clouds.No wind53%29.89 "Hg1 mi
8:30 PM73 °FPassing clouds.No wind44%29.89 "Hg1 mi
7:30 PM73 °FPassing clouds.5 mph44%29.89 "Hg1 mi
7:00 PM73 °FPassing clouds.5 mph44%29.89 "Hg1 mi
6:30 PM73 °FPassing clouds.6 mph44%29.89 "Hg1 mi
6:00 PM75 °FPassing clouds.5 mph39%29.89 "Hg2 mi
5:00 PM77 °FPartly sunny.5 mph34%29.86 "Hg2 mi
4:30 PM79 °FPartly sunny.5 mph30%29.89 "Hg2 mi
4:00 PM81 °FPartly sunny.8 mph28%29.89 "Hg2 mi
3:30 PM81 °FPartly sunny.8 mph28%29.89 "Hg2 mi
3:00 PM81 °FScattered clouds.8 mph28%29.89 "Hg2 mi
2:30 PM82 °FHaze.9 mph25%29.89 "Hg2 mi
2:00 PM82 °FHaze.8 mph23%29.92 "Hg2 mi
1:30 PM81 °FHaze.7 mph23%29.92 "Hg2 mi
1:00 PM81 °FHaze.7 mph23%29.92 "Hg2 mi
11:00 AM77 °FPassing clouds.6 mph30%29.98 "Hg2 mi
Weather by CustomWeather, © 2015

See weather overviewHow to use our weather pages